Oakland, CA

3:40 AM PDT on October 16, 2019 (GMT -0700)
Metro Oakland International

Weather History for KOAK - August, 2019

Change the Weather History Date:

Saturday, August 3, 2019

  Actual Average Record
Temperature  
Mean Temperature 68 °F 63 °F  
Max Temperature 75 °F 70 °F 97 °F (1998)
Min Temperature 61 °F 56 °F 49 °F (1954)
Degree Days  
Heating Degree Days 0 2  
Month to date heating degree days 0 7  
Since 1 June heating degree days 47 193  
Since 1 July heating degree days 15 90  
Cooling Degree Days 3 0  
Month to date cooling degree days 5 0  
Year to date cooling degree days 131 52  
Since 1 June cooling degree days 122 36  
Growing Degree Days 17 (Base 50)    
Moisture  
Dew Point 58 °F    
Average Humidity 74    
Maximum Humidity 90    
Minimum Humidity 57    
Precipitation  
Precipitation 0.00 in 0.00 in 0.01 in (1962)
Month to date precipitation 0.00 0.00  
Year to date precipitation 15.71 13.23  
Sea Level Pressure  
Sea Level Pressure 29.96 in    
Wind  
Wind Speed 9 mph (WSW)    
Max Wind Speed 21 mph    
Max Gust Speed 23 mph    
Visibility 10 miles    
Events      
T = Trace of Precipitation, MM = Missing Value Source: NWS Daily Summary

Daily Weather History Graph

Daily Weather History Graph

Search for Another Location

Airport or City:

Astronomy

Aug. 03, 2019 Rise Set
Actual Time 6:14 AM PDT 8:15 PM PDT
Civil Twilight 5:45 AM PDT 8:44 PM PDT
Nautical Twilight 5:09 AM PDT 9:19 PM PDT
Astronomical Twilight 4:31 AM PDT 9:57 PM PDT
Moon 9:11 AM PDT (8/3) 10:27 PM PDT (8/3)
Length of Visible Light 14h 59m
Length of Day
14h 01m
Waxing Crescent, 10% of the Moon is Illuminated
Aug 3
Waxing Crescent
Aug 7
First Quarter
Aug 15
Full
Aug 23
Last Quarter
Aug 30
New

Hourly Weather History & Observations

Time (PDT) Temp. Dew Point Humidity Pressure Visibility Wind Dir Wind Speed Gust Speed Precip Events Conditions
12:53 AM 63.0 °F 57.9 °F 84% 29.99 in 10.0 mi Calm Calm - N/A   Mostly Cloudy
1:53 AM 63.0 °F 57.9 °F 84% 29.99 in 10.0 mi Calm Calm - N/A   Mostly Cloudy
2:53 AM 62.1 °F 57.9 °F 86% 29.98 in 10.0 mi South 3.5 mph - N/A   Scattered Clouds
3:53 AM 62.1 °F 57.0 °F 84% 29.97 in 10.0 mi WSW 6.9 mph - N/A   Partly Cloudy
4:15 AM 61.0 °F 57.0 °F 87% 29.97 in 10.0 mi SW 6.9 mph - N/A   Mostly Cloudy
4:31 AM 62.1 °F 57.0 °F 84% 29.97 in 10.0 mi SW 5.8 mph - N/A   Mostly Cloudy
4:53 AM 62.1 °F 57.0 °F 84% 29.96 in 10.0 mi South 4.6 mph - N/A   Overcast
5:53 AM 62.1 °F 57.9 °F 86% 29.96 in 10.0 mi Calm Calm - N/A   Overcast
6:53 AM 63.0 °F 59.0 °F 87% 29.97 in 10.0 mi SW 6.9 mph - N/A   Overcast
7:53 AM 63.0 °F 57.9 °F 84% 29.97 in 10.0 mi WSW 5.8 mph - N/A   Overcast
8:53 AM 64.0 °F 57.9 °F 80% 29.98 in 10.0 mi WSW 6.9 mph - N/A   Overcast
9:53 AM 64.9 °F 59.0 °F 81% 29.97 in 10.0 mi South 5.8 mph - N/A   Mostly Cloudy
10:12 AM 66.0 °F 59.0 °F 78% 29.98 in 10.0 mi SSW 5.8 mph - N/A   Scattered Clouds
10:53 AM 66.9 °F 57.9 °F 73% 29.97 in 10.0 mi SW 4.6 mph - N/A   Partly Cloudy
11:53 AM 70.0 °F 55.9 °F 61% 29.96 in 10.0 mi West 9.2 mph - N/A   Partly Cloudy
12:53 PM 73.0 °F 57.0 °F 57% 29.95 in 10.0 mi WNW 11.5 mph - N/A   Partly Cloudy
1:53 PM 73.9 °F 57.0 °F 55% 29.94 in 10.0 mi WNW 16.1 mph - N/A   Partly Cloudy
2:53 PM 73.9 °F 57.0 °F 55% 29.93 in 10.0 mi WNW 16.1 mph - N/A   Partly Cloudy
3:53 PM 73.0 °F 57.9 °F 59% 29.92 in 10.0 mi WNW 19.6 mph - N/A   Partly Cloudy
4:53 PM 70.0 °F 57.9 °F 65% 29.93 in 10.0 mi WNW 18.4 mph - N/A   Scattered Clouds
5:53 PM 69.1 °F 57.9 °F 68% 29.92 in 10.0 mi West 16.1 mph - N/A   Scattered Clouds
6:53 PM 66.9 °F 57.9 °F 73% 29.93 in 10.0 mi WNW 15.0 mph - N/A   Mostly Cloudy
7:53 PM 64.0 °F 57.9 °F 80% 29.94 in 10.0 mi West 15.0 mph - N/A   Mostly Cloudy
8:35 PM 63.0 °F 57.9 °F 84% 29.95 in 10.0 mi West 15.0 mph - N/A   Mostly Cloudy
8:53 PM 63.0 °F 57.9 °F 84% 29.95 in 10.0 mi West 13.8 mph - N/A   Mostly Cloudy
9:53 PM 63.0 °F 57.9 °F 84% 29.96 in 10.0 mi WNW 10.4 mph - N/A   Overcast
10:53 PM 63.0 °F 57.9 °F 84% 29.96 in 10.0 mi WNW 10.4 mph - N/A   Overcast
11:53 PM 63.0 °F 57.9 °F 84% 29.96 in 10.0 mi Variable 3.5 mph - N/A   Overcast